Simultaneous Nadir Overpasses (SNOs) Predictions

Prediction of SNOs between NOAA-19 and TERRA Satellite Orbit:

Table of predicted SNOs for the next 14.0 days since TLE Epoch: 12/3/2016
Index Date (NOAA-19) Time (NOAA-19) Lat,Lon (NOAA-19) SZA (NOAA-19 ) Date (TERRA) Time (TERRA) Lat,Lon (TERRA) SZA (TERRA ) Distance(km) Time Diff (sec)
1 12/03/2016 10:44:14 74.59, 27.90 96.98 12/03/2016 10:44:48 74.61, 27.80 96.99 3.42 34
2 12/03/2016 11:35:11 -74.57,-164.77 83.05 12/03/2016 11:34:17 -74.54,-164.74 83.08 3.27 54
3 12/05/2016 16:18:08 -74.63, 124.37 82.72 12/05/2016 16:18:33 -74.62, 124.38 82.73 1.68 25
4 12/05/2016 17:09:10 74.55, -68.17 97.22 12/05/2016 17:08:00 74.54, -68.17 97.19 1.56 70
5 12/07/2016 21:52:06 74.61,-139.00 97.51 12/07/2016 21:52:16 74.60,-139.07 97.51 2.12 10
6 12/07/2016 22:42:59 -74.34, 29.00 82.72 12/07/2016 22:41:47 -74.43, 28.14 82.68 27.95 72
7 12/10/2016 02:35:16 75.33, 148.15 98.34 12/10/2016 02:36:21 75.22, 151.45 98.39 94.26 65
8 12/10/2016 03:26:00 -74.61, -42.44 82.29 12/10/2016 03:26:01 -74.60, -42.53 82.30 2.94 1
9 12/12/2016 08:09:02 -74.94,-114.07 81.84 12/12/2016 08:10:13 -74.86,-112.95 81.86 33.90 71
10 12/12/2016 08:59:57 74.62, 54.10 97.89 12/12/2016 08:59:43 74.62, 54.11 97.89 0.32 14
11 12/14/2016 13:42:53 74.71, -16.83 98.10 12/14/2016 13:43:58 74.72, -16.72 98.13 3.53 65
12 12/14/2016 14:33:52 -74.64, 150.64 81.97 12/14/2016 14:33:28 -74.61, 150.62 82.01 3.59 24
13 12/16/2016 19:16:48 -74.71, 79.76
